CO-66
1 32791U 08021J 12229.62782892 .00001025 00000-0 13056-3 0 3746
2 32791 097.7941 289.3093 0014897 218.0700 141.9421 14.83590844232704
RS-30
1 32953U 08025A 12229.57546516 .00000010 00000-0 00000 0 0 599
2 32953 082.4995 257.5869 0019044 171.8656 188.2735 12.43026715192068
PHARMSAT
1 35002U 09028B 12226.86484473 .07728342 73476-5 57159-3 0 789
2 35002 040.4341 050.6671 0012079 300.9773 059.0492 16.39309245183554
METEOR-M
1 35865U 09049A 12229.66733421 -.00000019 00000-0 11078-4 0 6895
2 35865 098.6496 282.8429 0001693 228.8447 131.2583 14.21867289151198
RS-38
1 35869U 09049E 12229.67944537 .00000006 00000-0 22161-4 0 6937
2 35869 098.6448 282.8404 0003824 233.4038 126.6785 14.22082234151213
JUGNU
1 37839U 11058B 12228.74158740 .00000620 00000-0 19019-3 0 2068
2 37839 019.9628 357.4379 0018681 156.6663 203.4538 14.12073213 43671
SRMSAT
1 37841U 11058D 12228.73566981 .00000264 00000-0 00000 0 0 2071
2 37841 019.9730 003.5186 0011803 123.4594 236.6949 14.10154209 43607
RAX-2
1 37853U 11061D 12228.87257347 .00003413 00000-0 27528-3 0 2589
2 37853 101.7093 296.2427 0246455 180.6933 179.3939 14.80382037 43225
AUBIESAT
1 37854U 11061E 12228.87890211 .00003979 00000-0 31359-3 0 2587
2 37854 101.7112 296.5808 0247676 179.8903 180.2388 14.80802906 43228
HRBE
1 37855U 11061F 12228.89871724 .00004165 00000-0 32904-3 0 02561
2 37855 101.7117 296.5454 0247862 179.9510 180.1766 14.80638699043228
RS-39
1 38051U 11062C 12229.81045976 .00007319 00000-0 29990-3 0 6149
2 38051 051.6387 230.7611 0012821 256.0322 161.6952 15.25230577 31228
E-STAR
1 38079U 12006C 12229.81948136 .00026333 00000-0 64017-3 0 4322
2 38079 069.4856 176.7353 0728348 171.3899 190.0518 14.18402841 26172
GOLIAT
1 38085U 12006J 12228.86611142 .00027781 00000-0 67117-3 0 3968
2 38085 069.4880 179.4058 0734004 172.9117 188.3114 14.17316840 26022
HORYU-2
1 38340U 12025D 12229.81397341 .00000786 00000-0 13903-3 0 957
2 38340 098.1753 169.6900 0013737 133.9257 226.3119 14.70095138 13382
RS-40
1 38736U 12041D 12228.48369154 .00000010 00000-0 00000-0 0 00251
2 38736 082.4807 345.7228 0017664 275.1527 084.7535 12.42645912002271
